Flag for Tajikistan Weather past 2 weeks in Dushanbe, Tajikistan

45 °F


Feels Like: 45 °F
Forecast: 33 / 51 °F
Wind: No wind

Location: Dushanbe Airport

Current Time: Nov 25, 2015 at 9:28:57 PM

Latest Report: Nov 25, 2015 at 9:00 PM

Visibility: 3 mi

Pressure: 30.33 "Hg (27.40 "Hg at 832m altitude)

Humidity: 81%

Dew point: 39 °F

Location of DushanbeLocation

Historic Weather in Dushanbe — Graph


Dushanbe temperature yesterday

Maximum temperature yesterday: 48 °F (at 1:00 PM)
Minimum temperature yesterday: 41 °F (at 1:00 AM)
Average temperature yesterday: 45 °F

Past Weeks' High & Low Weather Summary

High70 °F (Nov 18, 2:00 PM)100% (Nov 10, 9:30 PM)30.42 "Hg (Nov 10, 9:30 PM)
Low32 °F (Nov 16, 3:30 AM)25% (Nov 16, 2:00 PM)29.74 "Hg (Nov 12, 7:30 AM)
Average48 °F76%30.16 "Hg
* Reported Nov 10 8:00 PM — Nov 25 8:00 PM, Dushanbe, Weather by CustomWeather, © 2015

Note: Actual official high and low records may vary slightly from our data, if they occured in-between our weather recording intervals... More about our weather records


Dushanbe weather history for previous 24 hours

Time TempWeatherWind HumidityBarometerVisibility
8:00 PM
Wed, Nov 25
45 °FFog.1 mph81%30.33 "Hg3 mi
7:30 PM45 °FFog.1 mph81%30.30 "Hg3 mi
7:00 PM45 °FFog.3 mph87%30.30 "Hg2 mi
6:30 PM45 °FFog.3 mph87%30.30 "Hg2 mi
6:00 PM45 °FFog.3 mph81%30.30 "Hg3 mi
5:30 PM46 °FOvercast.1 mph71%30.30 "Hg4 mi
5:00 PM46 °FFog.3 mph71%30.30 "Hg3 mi
4:30 PM46 °FFog.3 mph71%30.30 "Hg3 mi
4:00 PM46 °FOvercast.3 mph71%30.30 "Hg4 mi
3:30 PM46 °FFog.6 mph71%30.30 "Hg3 mi
3:00 PM46 °FFog.6 mph71%30.30 "Hg3 mi
2:30 PM46 °FFog.3 mph71%30.30 "Hg3 mi
2:00 PM46 °FFog.3 mph76%30.30 "Hg3 mi
1:30 PM46 °FFog.1 mph71%30.30 "Hg3 mi
1:00 PM46 °FFog.3 mph76%30.33 "Hg3 mi
12:30 PM46 °FFog.3 mph76%30.33 "Hg2 mi
12:00 PM46 °FFog.3 mph76%30.33 "Hg2 mi
11:30 AM46 °FFog.1 mph82%30.36 "Hg2 mi
11:00 AM46 °FFog.3 mph82%30.36 "Hg2 mi
10:30 AM45 °FFog.3 mph81%30.36 "Hg2 mi
10:00 AM45 °FFog.3 mph87%30.36 "Hg2 mi
9:30 AM43 °FFog.1 mph93%30.36 "Hg2 mi
9:00 AM43 °FFog.3 mph87%30.36 "Hg2 mi
8:30 AM43 °FMore clouds than sun.3 mph87%30.36 "Hg2 mi
8:00 AM41 °FFog.3 mph93%30.36 "Hg2 mi
7:30 AM41 °FFog.3 mph100%30.36 "Hg2 mi
7:00 AM41 °FFog.3 mph100%30.36 "Hg2 mi
6:30 AM41 °FFog.3 mph93%30.36 "Hg2 mi
6:00 AM41 °FFog.3 mph93%30.33 "Hg2 mi
5:30 AM41 °FFog.1 mph93%30.33 "Hg2 mi
5:00 AM41 °FFog.1 mph93%30.36 "Hg3 mi
4:30 AM41 °FFog.3 mph93%30.36 "Hg2 mi
4:00 AM41 °FFog.3 mph93%30.36 "Hg2 mi
3:30 AM43 °FFog.1 mph93%30.36 "Hg3 mi
3:00 AM43 °FFog.3 mph93%30.36 "Hg3 mi
2:30 AM43 °FFog.3 mph93%30.39 "Hg3 mi
2:00 AM43 °FClear.3 mph93%30.39 "Hg4 mi
1:30 AM45 °FPassing clouds.1 mph87%30.39 "Hg4 mi
1:00 AM45 °FMostly cloudy.3 mph87%30.39 "Hg5 mi
12:30 AM45 °FMostly cloudy.1 mph87%30.42 "Hg5 mi
12:00 AM45 °FOvercast.1 mph87%30.42 "Hg4 mi
11:30 PM
Tue, Nov 24
45 °FOvercast.3 mph87%30.42 "Hg4 mi
11:00 PM45 °FFog.1 mph87%30.42 "Hg3 mi
10:30 PM45 °FFog.3 mph87%30.42 "Hg3 mi
10:00 PM45 °FFog.1 mph87%30.42 "Hg3 mi
9:30 PM45 °FFog.3 mph87%30.42 "Hg3 mi
9:00 PM45 °FFog.6 mph87%30.39 "Hg3 mi
Weather by CustomWeather, © 2015

See weather overviewHow to use our weather pages